Appleton, WI

7:17 PM CST on December 06, 2019 (GMT -0600)
Outagamie County Regional

Weather History for KATW - August, 2019

Change the Weather History Date:

Thursday, August 22, 2019

  Actual Average Record
Temperature  
Mean Temperature 60 °F -  
Max Temperature 68 °F 77 °F 94 °F (1968)
Min Temperature 51 °F 57 °F 41 °F (1967)
Degree Days  
Heating Degree Days 6    
Growing Degree Days 10 (Base 50)    
Moisture  
Dew Point 48 °F    
Average Humidity 68    
Maximum Humidity 88    
Minimum Humidity 58    
Precipitation  
Precipitation 0.00 in - - ()
Sea Level Pressure  
Sea Level Pressure 30.06 in    
Wind  
Wind Speed 3 mph ()    
Max Wind Speed 12 mph    
Max Gust Speed -    
Visibility 10.0 miles    
Events      
Averages and records for this station are not official NWS values.
T = Trace of Precipitation, MM = Missing Value Source: Averaged Metar Reports

Daily Weather History Graph

Daily Weather History Graph

Search for Another Location

Airport or City:

Astronomy

Aug. 22, 2019 Rise Set
Actual Time 6:05 AM CDT 7:47 PM CDT
Civil Twilight 5:34 AM CDT 8:18 PM CDT
Nautical Twilight 4:56 AM CDT 8:55 PM CDT
Astronomical Twilight 4:16 AM CDT 9:36 PM CDT
Moon 11:22 PM CDT (8/22) 12:55 PM CDT (8/22)
Length of Visible Light 14h 44m
Length of Day
13h 42m
Waning Gibbous, 59% of the Moon is Illuminated
Aug 22
Waning Gibbous
Aug 23
Last Quarter
Aug 30
New
Sep 5
First Quarter
Sep 13
Full

Hourly Weather History & Observations

Time (CDT) Temp. Dew Point Humidity Pressure Visibility Wind Dir Wind Speed Gust Speed Precip Events Conditions
12:15 AM 57.2 °F 42.8 °F 59% 30.02 in 10.0 mi Calm Calm - N/A   Clear
12:35 AM 57.2 °F 42.8 °F 59% 30.02 in 10.0 mi North 3.5 mph - N/A   Clear
12:55 AM 57.2 °F 42.8 °F 59% 30.02 in 10.0 mi North 4.6 mph - N/A   Clear
1:15 AM 55.4 °F 42.8 °F 63% 30.02 in 10.0 mi North 4.6 mph - N/A   Clear
1:35 AM 57.2 °F 42.8 °F 59% 30.02 in 10.0 mi North 3.5 mph - N/A   Clear
1:55 AM 55.4 °F 42.8 °F 63% 30.02 in 10.0 mi North 3.5 mph - N/A   Clear
2:15 AM 55.4 °F 42.8 °F 63% 30.02 in 10.0 mi North 3.5 mph - N/A   Clear
2:35 AM 55.4 °F 42.8 °F 63% 30.02 in 10.0 mi NNE 3.5 mph - N/A   Clear
2:55 AM 55.4 °F 41.0 °F 58% 30.02 in 10.0 mi Calm Calm - N/A   Clear
3:15 AM 55.4 °F 42.8 °F 63% 30.02 in 10.0 mi Calm Calm - N/A   Clear
3:35 AM 55.4 °F 42.8 °F 63% 30.02 in 10.0 mi North 3.5 mph - N/A   Clear
3:55 AM 53.6 °F 42.8 °F 67% 30.01 in 10.0 mi North 5.8 mph - N/A   Clear
4:15 AM 51.8 °F 42.8 °F 71% 30.01 in 10.0 mi North 5.8 mph - N/A   Clear
4:35 AM 53.6 °F 42.8 °F 67% 30.01 in 10.0 mi North 5.8 mph - N/A   Clear
4:55 AM 53.6 °F 42.8 °F 67% 30.01 in 10.0 mi North 4.6 mph - N/A   Clear
5:15 AM 51.8 °F 42.8 °F 71% 30.02 in 10.0 mi North 4.6 mph - N/A   Clear
5:45 AM 53.6 °F 48.2 °F 82% 30.03 in 10.0 mi North 4.6 mph - N/A   Clear
6:45 AM 55.4 °F 51.8 °F 88% 30.04 in 10.0 mi NNE 4.6 mph - N/A   Scattered Clouds
7:45 AM 59.0 °F 55.4 °F 88% 30.04 in 10.0 mi Calm Calm - N/A   Mostly Cloudy
8:45 AM 60.8 °F 55.4 °F 82% 30.06 in 10.0 mi Calm Calm - N/A   Mostly Cloudy
9:45 AM 62.6 °F 55.4 °F 77% 30.06 in 10.0 mi Variable 4.6 mph - N/A   Mostly Cloudy
10:45 AM 64.4 °F 53.6 °F 68% 30.07 in 10.0 mi Variable 4.6 mph - N/A   Overcast
11:45 AM 66.2 °F 55.4 °F 68% 30.08 in 10.0 mi NNE 6.9 mph - N/A   Mostly Cloudy
12:45 PM 68.0 °F 55.4 °F 64% 30.07 in 10.0 mi Variable 4.6 mph - N/A   Overcast
1:45 PM 66.2 °F 53.6 °F 64% 30.07 in 10.0 mi Variable 4.6 mph - N/A   Overcast
2:45 PM 66.2 °F 57.2 °F 73% 30.08 in 10.0 mi NNE 11.5 mph - N/A   Overcast
3:45 PM 66.2 °F 55.4 °F 68% 30.08 in 10.0 mi NNE 8.1 mph - N/A   Overcast
4:45 PM 64.4 °F 53.6 °F 68% 30.08 in 10.0 mi ENE 6.9 mph - N/A   Overcast
5:45 PM 64.4 °F 51.8 °F 64% 30.08 in 10.0 mi ESE 6.9 mph - N/A   Mostly Cloudy
6:45 PM 64.4 °F 53.6 °F 68% 30.08 in 10.0 mi ESE 4.6 mph - N/A   Mostly Cloudy
7:45 PM 62.6 °F 53.6 °F 72% 30.10 in 10.0 mi Variable 4.6 mph - N/A   Mostly Cloudy
8:45 PM 62.6 °F 53.6 °F 72% 30.11 in 10.0 mi Variable 4.6 mph - N/A   Mostly Cloudy
9:45 PM 62.6 °F 53.6 °F 72% 30.12 in 10.0 mi Variable 4.6 mph - N/A   Overcast
10:45 PM 62.6 °F 51.8 °F 68% 30.12 in 10.0 mi Variable 4.6 mph - N/A   Overcast
10:55 PM 60.8 °F 46.4 °F 59% 30.12 in 10.0 mi East 3.5 mph - N/A   Overcast
11:35 PM 57.2 °F 46.4 °F 67% 30.14 in 10.0 mi Calm Calm - N/A   Clear
11:55 PM 55.4 °F 46.4 °F 72% 30.15 in 10.0 mi Calm Calm - N/A   Clear